Location: Byszew
(52.1813°N, 19.2693°E)
Time: 01:19:59
(UTC+00:00)

Cosmos 2322 Rocket - Pass Details

Date: 03 March 2021
Orbit: 832 x 852 km, 71.0° (Epoch: 11 April)

Event Time Altitude Azimuth Distance (km) Brightness Sun altitude
Rises 19:09:58 0° 243° (WSW) 3,372 5.9 -25.4°
Reaches altitude 10° 19:12:38 10° 253° (WSW) 2,443 5.2 -25.7°
Maximum altitude 19:17:40 33° 316° (NW) 1,377 3.8 -26.4°
Drops below altitude 10° 19:22:44 10° 20° (NNE) 2,462 4.7 -27.1°
Sets 19:25:27 0° 30° (NNE) 3,403 5.3 -27.5°
